This is the latest recevied weather packets stored in our database for station/object 9A3XK-13. If no packets are shown the sender has not sent any weather packets the latest 10 day(s).
| Time | Temp. | Humidity | Pressure | Rain* | Wind** | Luminosity | Snow |
|---|---|---|---|---|---|---|---|
| 1777623917 | 13.89° C | 42% | 1026.9 hPa | 0 mm | - | 693 W/m² | - |
| 1777623616 | 13.89° C | 44% | 1026.9 hPa | 0 mm | - | 681 W/m² | - |
| 1777623316 | 13.89° C | 44% | 1026.9 hPa | 0 mm | - | 672 W/m² | - |
| 1777623017 | 13.89° C | 42% | 1026.9 hPa | 0 mm | - | 662 W/m² | - |
| 1777622716 | 13.33° C | 45% | 1026.9 hPa | 0 mm | - | 651 W/m² | - |
| 1777622416 | 13.33° C | 46% | 1026.9 hPa | 0 mm | - | 641 W/m² | - |
| 1777622116 | 13.33° C | 47% | 1026.9 hPa | 0 mm | - | 629 W/m² | - |
| 1777621816 | 12.78° C | 49% | 1026.9 hPa | 0 mm | - | 616 W/m² | - |
| 1777621516 | 12.78° C | 46% | 1026.9 hPa | 0 mm | - | 605 W/m² | - |
| 1777621216 | 12.78° C | 50% | 1026.9 hPa | 0 mm | - | 595 W/m² | - |
| 1777620916 | 12.22° C | 50% | 1026.9 hPa | 0 mm | - | 583 W/m² | - |
| 1777620616 | 12.22° C | 50% | 1026.9 hPa | 0 mm | - | 570 W/m² | - |
| 1777620316 | 12.22° C | 51% | 1026.9 hPa | 0 mm | - | 556 W/m² | - |
| 1777620016 | 11.67° C | 52% | 1026.9 hPa | 0 mm | - | 544 W/m² | - |
| 1777619716 | 11.67° C | 53% | 1026.9 hPa | 0 mm | - | 529 W/m² | - |
| 1777619416 | 11.11° C | 53% | 1026.9 hPa | 0 mm | - | 516 W/m² | - |
| 1777619116 | 11.11° C | 53% | 1026.9 hPa | 0 mm | - | 504 W/m² | - |
| 1777618817 | 10.56° C | 54% | 1026.9 hPa | 0 mm | - | 490 W/m² | - |
| 1777618516 | 10.56° C | 54% | 1026.9 hPa | 0 mm | - | 477 W/m² | - |
| 1777618217 | 10.56° C | 54% | 1026.9 hPa | 0 mm | - | 463 W/m² | - |
| 1777617916 | 10.56° C | 53% | 1026.8 hPa | 0 mm | - | 448 W/m² | - |
| 1777617616 | 10° C | 54% | 1026.8 hPa | 0 mm | - | 435 W/m² | - |
| 1777617316 | 10° C | 55% | 1026.7 hPa | 0 mm | - | 420 W/m² | - |
| 1777617016 | 9.44° C | 58% | 1026.7 hPa | 0 mm | - | 406 W/m² | - |
| 1777616716 | 9.44° C | 57% | 1026.7 hPa | 0 mm | - | 393 W/m² | - |
* Rain latest hour (hover to see other rain measurements)
** Current wind speed in m/s (hover to see current wind gust speed)